SCP
1 2 1 0 0 0 0 0 0 0 0 0 0 0 0 0 0 0 0 0 0 0 0 0 0 0 0 0 0 0 0 0 0 0 0 0 0 0 0 0 0 0 0
1 1 1 0 0 0 0 0 0 0 0 0 0 0 0 0 0 0 0 0 0 0 0 0 0 0 0 0 0 0 0 0 0 0 0 0 0 0 0 0 0 0 0
1 1 0 0 0 -0 0 0 0 0 0 0 0 0 0 0 0 0 0 0 0 0 0 0 0 0 0 0 0 0 0 0 0 0 0 0 0 0 0 0 0 0 0
1 0 0 0 0 0 0 0 0 0 0 0 0 0 0 0 0 0 0 0 0 0 0 0 0 0 0 0 0 0 0 0 0 0 0 0 0 0 0 0 0 0 0
0 0 1 0 0 0 0 0 0 0 0 0 0 0 0 0 0 0 0 0 0 0 0 0 0 0 0 0 0 0 0 0 0 0 0 0 0 0 0 0 0 0 0
0 0 1 1 1 0 0 0 0 0 0 0 0 0 0 0 0 0 0 0 0 0 0 0 0 0 0 0 0 0 0 0 0 0 0 0 -0 0 0 0 0 0 0
0 0 0 0 0 0 0 0 0 0 0 0 0 0 0 0 0 0 0 0 0 0 0 0 0 0 0 0 0 0 0 0 0 0 0 0 0 0 0 0 0 0 0
1 0 1 1 1 0 0 0 0 0 0 0 0 0 0 0 0 0 0 0 0 0 0 0 0 0 0 0 0 0 0 0 0 0 0 0 0 0 0 0 0 0 0
0 2 2 1 1 0 0 0 0 0 0 0 0 0 0 0 0 0 0 0 0 0 0 0 0 0 0 0 0 0 0 0 0 -0 -0 -0 -0 0 0 0 0 0 0
-1 1 2 1 1 1 0 0 0 0 0 0 0 0 0 0 0 0 0 0 0 0 0 0 0 0 0 0 0 0 0 0 0 -0 -0 0 0 0 0 0 0 0 0
0 0 0 1 1 1 0 0 0 0 0 0 0 0 0 0 0 0 0 0 0 0 0 0 0 0 0 0 0 0 0 0 0 -0 0 0 0 0 0 0 0 0 0
0 0 0 1 1 1 1 0 0 0 0 0 0 0 0 0 0 0 0 0 0 0 0 0 0 0 0 0 0 0 0 0 0 0 0 0 0 0 0 0 0 0 0
0 0 0 0 1 1 0 0 0 0 0 0 0 0 0 0 0 0 0 0 0 0 0 0 0 0 0 0 0 0 0 0 0 0 0 0 0 0 0 0 0 0 0
-0 0 0 0 0 0 0 0 0 0 0 0 0 0 0 0 0 0 0 0 0 0 0 0 0 0 0 0 0 0 0 0 0 0 0 0 0 0 0 0 0 0 0
-0 -0 0 0 0 0 0 0 0 0 0 0 0 0 0 0 0 0 0 0 0 0 0 0 0 0 0 0 0 0 0 0 -0 -0 -0 -0 0 0 0 0 0 0 0
0 -0 -0 0 0 0 0 0 0 0 0 0 0 0 0 0 0 0 0 0 0 0 0 0 0 0 0 0 0 0 0 0 -0 0 0 -0 0 0 0 0 0 0 0
0 0 0 0 0 0 0 0 0 0 0 0 0 0 0 0 0 0 0 0 0 0 0 0 0 0 0 0 0 0 0 -0 0 0 0 0 0 0 0 0 0 0 0
0 0 0 0 0 0 0 0 0 0 0 0 0 0 0 0 0 0 0 0 0 0 0 0 0 0 0 0 0 0 0 0 0 0 0 0 0 0 0 0 0 0 0
0 0 0 0 0 0 0 0 0 0 0 0 0 0 0 0 0 0 0 0 0 0 0 0 0 0 0 0 0 0 0 0 0 0 0 0 0 0 0 0 0 0 0
0 0 0 0 0 0 0 0 0 0 0 0 0 0 0 0 0 0 0 0 0 0 0 0 0 0 0 0 0 0 0 0 0 0 0 0 0 0 0 0 0 0 0
0 0 0 0 0 0 0 0 0 0 0 0 0 0 0 0 0 0 0 0 0 0 0 0 0 0 0 0 0 0 0 0 0 0 0 0 0 0 0 0 0 0 0
0 0 0 0 0 0 0 0 0 0 0 0 0 0 0 0 0 0 0 0 0 0 0 0 0 0 0 0 0 0 0 0 0 0 0 0 0 0 0 0 0 0 0
0 0 0 0 0 0 0 0 0 0 0 0 0 0 0 0 0 0 0 0 0 0 0 0 0 0 0 0 0 0 0 0 0 0 0 0 0 0 0 0 0 0 0
0 0 0 0 0 0 0 0 0 0 0 0 0 0 0 0 0 0 0 0 0 0 0 0 0 0 0 0 0 0 0 0 0 0 0 0 0 0 0 0 0 0 0
0 0 0 0 0 0 0 0 0 0 0 0 0 0 0 0 0 0 0 0 0 0 0 0 0 0 0 0 0 0 0 0 0 0 0 0 0 0 0 0 0 0 0
0 0 0 0 0 0 0 0 0 0 0 0 0 0 0 0 0 0 0 0 0 0 0 0 0 0 0 0 0 0 0 0 0 0 0 0 0 0 0 0 0 0 0
Wind_Speed_500mb
112 116 125 132 119 112 91 71 74 79 78 59 64 62 72 76 68 62 58 50 45 37 31 22 18 14 11 12 12 13 12 14 17 16 9 4 9 13 14 17 21 17 18
104 110 119 119 113 109 89 69 70 72 74 56 67 68 75 79 72 67 63 56 49 43 36 28 21 16 15 12 10 10 11 12 12 13 8 3 1 8 15 19 19 13 20
100 104 108 110 113 113 97 75 67 74 75 66 74 77 82 81 74 68 65 58 50 46 39 29 22 16 15 14 17 14 14 15 16 14 10 9 7 7 13 15 12 10 18
99 103 104 107 111 115 104 81 73 78 81 81 78 83 84 79 73 69 68 59 56 53 41 34 25 19 16 19 19 19 19 18 17 13 16 12 7 8 13 16 15 13 20
95 104 107 106 104 111 105 91 79 85 88 80 78 83 82 81 77 74 70 67 66 62 49 43 33 23 19 20 18 24 22 21 18 15 18 14 8 8 15 17 18 23 27
91 97 104 110 109 110 106 95 81 89 88 81 83 83 86 87 81 74 75 77 75 70 61 53 39 27 25 24 27 25 21 19 19 24 21 16 10 9 9 14 21 31 35
76 89 99 105 112 115 108 92 87 90 85 82 84 82 84 88 85 80 80 85 84 77 69 47 39 35 32 30 33 29 27 22 23 23 21 16 10 6 7 12 23 31 30
61 73 86 98 107 110 108 96 90 90 80 56 83 83 81 88 87 85 91 91 87 80 66 48 43 38 39 35 38 36 31 28 30 23 17 17 11 5 4 14 22 29 34
53 67 78 85 94 100 107 95 97 95 84 78 95 99 86 87 88 92 95 88 87 79 59 50 49 46 41 41 43 39 37 35 27 24 17 17 11 5 3 11 19 26 35
46 57 67 74 84 94 98 99 103 96 90 82 105 94 83 83 88 91 95 93 83 59 49 57 52 51 45 42 44 40 41 35 31 25 17 17 12 7 1 7 18 25 30
44 48 54 64 75 88 89 89 94 84 87 101 95 87 83 79 85 88 94 101 75 58 63 66 66 54 45 45 45 44 35 32 27 22 19 20 14 11 1 6 13 21 28
48 46 48 54 61 67 84 77 78 61 88 85 92 81 75 80 80 90 93 82 66 55 70 74 69 55 43 46 49 48 40 33 30 29 27 24 17 8 3 9 16 20 26
47 49 42 39 48 56 78 81 58 61 56 98 82 79 80 76 76 86 80 66 59 57 59 73 70 58 51 52 52 47 41 36 34 34 27 20 13 5 3 8 13 21 23
24 27 22 21 42 52 73 79 84 73 101 115 86 78 77 75 86 89 77 70 71 62 68 69 66 56 52 52 54 50 43 39 34 30 28 19 11 2 3 2 10 17 23
16 13 19 3 35 56 62 67 66 90 94 100 89 77 73 85 92 102 92 82 75 72 80 80 72 62 58 60 55 52 50 46 38 29 25 20 13 6 7 2 7 13 26
26 11 7 7 6 12 32 35 54 65 70 80 56 52 59 61 79 100 76 81 77 82 84 88 80 70 64 67 64 56 56 51 40 31 25 21 16 9 4 5 12 21 28
38 24 17 5 2 6 19 29 39 41 42 45 42 39 34 65 85 97 85 82 78 83 83 85 78 73 66 65 64 61 56 48 38 34 29 24 15 15 12 10 17 27 32
42 33 27 18 12 8 23 35 54 58 53 48 38 36 40 40 74 93 90 76 83 77 82 78 75 69 63 64 65 60 52 46 41 38 35 34 26 16 15 15 16 28 28
44 37 30 26 26 18 26 38 43 44 41 43 41 32 28 40 70 81 81 83 86 85 75 66 66 66 65 62 66 58 52 45 40 36 33 30 28 24 16 19 18 26 29
38 38 27 20 23 26 24 32 41 52 48 44 47 54 54 57 63 77 79 83 83 80 71 64 65 60 54 58 64 58 50 44 44 39 35 30 27 27 27 23 23 26 23
30 28 22 19 21 24 25 33 39 42 47 55 45 59 66 74 76 81 82 82 78 76 73 68 64 59 54 60 59 55 50 47 47 45 40 32 26 23 21 21 25 27 26
27 21 23 23 21 21 25 31 38 45 50 50 58 64 72 73 71 69 68 66 68 72 73 62 57 54 58 61 64 59 52 50 48 46 43 38 34 30 28 27 29 32 35
1 10 15 19 15 14 17 20 25 33 40 43 51 64 65 56 52 43 46 54 59 59 67 64 55 52 52 53 59 59 58 57 53 45 44 43 41 40 43 41 38 38 37
5 5 10 8 3 6 9 14 19 20 22 30 41 59 46 39 37 42 47 44 41 41 45 51 52 52 51 50 55 57 61 64 59 51 46 46 49 43 43 42 40 40 34
12 11 13 12 5 4 9 11 18 23 25 33 46 41 35 37 40 43 38 31 30 33 35 39 42 44 48 50 50 53 58 62 65 60 52 49 43 41 41 40 36 37 37
22 22 19 16 12 9 10 15 17 14 18 30 31 28 33 32 28 29 31 28 29 33 37 39 41 42 44 47 51 53 56 59 66 68 60 55 51 48 48 43 39 41 42
Wind_Direction_500mb
238 237 236 234 230 235 232 239 234 233 232 220 214 215 212 217 219 219 217 216 213 212 209 215 217 217 222 203 211 208 210 214 205 180 177 256 325 355 3 354 352 350 357
243 239 237 236 230 232 231 234 229 233 232 229 222 218 215 217 218 218 217 216 216 213 212 209 213 214 192 189 197 201 185 172 181 174 187 237 44 26 1 347 346 10 9
242 241 240 238 233 232 233 235 232 231 229 229 226 219 216 216 217 217 220 220 218 216 209 203 208 213 198 200 182 190 197 180 169 172 164 155 111 19 349 351 35 55 28
247 244 243 241 236 234 235 236 235 229 228 228 227 222 218 217 219 219 217 216 215 208 201 202 206 197 203 199 183 189 185 175 161 153 147 140 96 19 9 56 49 31 17
253 253 246 243 239 235 235 237 233 227 227 226 228 222 219 218 219 217 218 216 212 203 196 197 193 177 187 191 194 190 178 177 170 162 159 139 117 68 73 52 30 19 13
260 256 255 249 240 237 234 234 230 228 226 223 225 223 219 219 220 219 220 215 210 201 195 196 190 170 191 189 187 188 186 186 173 160 153 150 133 111 66 32 24 13 13
268 259 253 252 248 241 236 234 227 226 223 226 226 220 221 223 222 220 221 218 209 199 196 193 177 170 191 189 185 187 182 177 157 156 157 155 142 127 54 27 24 14 10
279 269 259 255 250 245 242 233 225 223 219 225 236 224 222 223 225 223 223 217 203 197 196 191 177 182 192 187 186 184 178 166 159 161 158 156 158 136 48 28 20 19 15
292 282 273 262 250 248 246 240 230 221 202 209 222 222 219 221 220 224 224 208 199 195 187 179 176 183 190 187 185 184 170 163 163 167 163 159 171 145 77 26 10 7 4
314 293 275 265 261 256 248 240 234 226 203 215 212 215 218 220 220 221 216 202 189 184 180 179 174 186 191 188 186 182 169 164 166 170 166 175 187 195 332 9 358 7 358
288 287 281 283 267 259 248 242 238 230 223 212 209 210 214 217 219 222 223 204 188 185 192 179 176 187 186 186 182 176 169 165 168 173 175 177 194 188 155 355 353 356 355
299 285 281 276 267 248 235 223 218 221 241 225 206 202 209 212 220 217 211 190 189 191 192 179 175 183 182 183 174 171 170 174 184 178 172 169 168 180 94 359 348 347 347
309 306 294 270 250 238 226 216 217 208 226 240 214 198 200 204 208 208 183 185 192 183 189 178 172 177 176 176 176 176 177 179 179 177 177 181 176 164 27 359 346 347 355
339 317 312 259 238 231 213 208 210 222 223 235 214 202 198 200 199 183 184 190 182 179 174 173 173 169 172 175 179 182 182 180 178 181 173 175 175 187 64 26 348 342 3
349 20 8 347 218 221 216 207 227 209 195 228 216 210 205 201 202 186 189 187 189 172 174 177 177 174 172 176 182 182 181 182 179 177 184 196 195 155 115 336 344 348 347
320 322 65 35 115 183 213 213 230 211 208 213 223 230 221 230 211 188 190 190 185 174 179 186 182 181 179 180 183 184 183 183 184 186 194 201 199 197 199 273 309 320 331
300 301 296 246 194 214 203 216 218 207 206 212 223 234 238 233 201 187 196 191 183 176 189 192 189 187 186 185 186 185 186 187 192 205 216 223 214 227 239 255 296 312 327
292 292 282 274 242 245 232 225 215 198 197 199 216 229 230 240 204 194 195 185 179 187 194 195 194 194 193 191 191 192 192 200 208 222 234 235 235 248 249 257 289 313 323
283 284 287 287 272 248 241 231 222 216 205 205 197 181 203 217 198 202 190 188 187 190 194 198 197 194 193 195 196 197 200 209 220 223 228 228 236 242 259 255 279 305 309
274 282 280 284 278 270 249 231 214 212 203 196 188 180 182 188 184 188 191 191 196 193 192 192 188 191 197 196 195 199 208 216 216 218 222 230 237 253 258 256 266 296 306
279 275 273 280 275 274 260 233 217 204 205 201 193 189 185 185 184 184 187 196 201 198 195 196 196 196 197 197 200 206 212 217 222 223 227 228 235 248 249 244 269 286 295
279 268 250 253 276 263 247 226 212 207 199 197 194 187 184 186 186 187 194 200 202 204 200 200 203 208 212 212 210 213 221 225 225 229 231 231 238 244 245 252 268 278 285
347 334 252 260 261 256 246 227 211 210 198 197 197 180 179 182 186 194 198 201 203 202 202 207 215 219 214 216 215 219 225 229 231 234 234 239 251 255 255 257 267 276 279
110 312 321 316 256 238 209 207 188 181 181 178 176 175 176 181 188 187 191 195 193 200 211 216 219 215 215 220 220 226 233 232 231 232 236 245 257 255 257 259 266 269 271
71 53 88 90 111 154 149 154 156 157 161 164 171 177 186 189 182 175 187 194 207 214 210 211 215 219 226 227 231 236 240 234 232 234 239 244 242 247 251 252 255 259 267
70 77 75 66 78 126 130 146 137 159 177 176 170 172 169 157 165 187 201 214 225 223 220 224 224 226 229 234 237 238 239 235 234 232 235 239 243 251 255 255 254 258 266
Wind_Speed_850mb
112 116 125 132 119 112 91 71 74 79 78 59 64 62 72 76 68 62 58 50 45 37 31 22 18 14 11 12 12 13 12 14 17 16 9 4 9 13 14 17 21 17 18
104 110 119 119 113 109 89 69 70 72 74 56 67 68 75 79 72 67 63 56 49 43 36 28 21 16 15 12 10 10 11 12 12 13 8 3 1 8 15 19 19 13 20
100 104 108 110 113 113 97 75 67 74 75 66 74 77 82 81 74 68 65 58 50 46 39 29 22 16 15 14 17 14 14 15 16 14 10 9 7 7 13 15 12 10 18
99 103 104 107 111 115 104 81 73 78 81 81 78 83 84 79 73 69 68 59 56 53 41 34 25 19 16 19 19 19 19 18 17 13 16 12 7 8 13 16 15 13 20
95 104 107 106 104 111 105 91 79 85 88 80 78 83 82 81 77 74 70 67 66 62 49 43 33 23 19 20 18 24 22 21 18 15 18 14 8 8 15 17 18 23 27
91 97 104 110 109 110 106 95 81 89 88 81 83 83 86 87 81 74 75 77 75 70 61 53 39 27 25 24 27 25 21 19 19 24 21 16 10 9 9 14 21 31 35
76 89 99 105 112 115 108 92 87 90 85 82 84 82 84 88 85 80 80 85 84 77 69 47 39 35 32 30 33 29 27 22 23 23 21 16 10 6 7 12 23 31 30
61 73 86 98 107 110 108 96 90 90 80 56 83 83 81 88 87 85 91 91 87 80 66 48 43 38 39 35 38 36 31 28 30 23 17 17 11 5 4 14 22 29 34
53 67 78 85 94 100 107 95 97 95 84 78 95 99 86 87 88 92 95 88 87 79 59 50 49 46 41 41 43 39 37 35 27 24 17 17 11 5 3 11 19 26 35
46 57 67 74 84 94 98 99 103 96 90 82 105 94 83 83 88 91 95 93 83 59 49 57 52 51 45 42 44 40 41 35 31 25 17 17 12 7 1 7 18 25 30
44 48 54 64 75 88 89 89 94 84 87 101 95 87 83 79 85 88 94 101 75 58 63 66 66 54 45 45 45 44 35 32 27 22 19 20 14 11 1 6 13 21 28
48 46 48 54 61 67 84 77 78 61 88 85 92 81 75 80 80 90 93 82 66 55 70 74 69 55 43 46 49 48 40 33 30 29 27 24 17 8 3 9 16 20 26
47 49 42 39 48 56 78 81 58 61 56 98 82 79 80 76 76 86 80 66 59 57 59 73 70 58 51 52 52 47 41 36 34 34 27 20 13 5 3 8 13 21 23
24 27 22 21 42 52 73 79 84 73 101 115 86 78 77 75 86 89 77 70 71 62 68 69 66 56 52 52 54 50 43 39 34 30 28 19 11 2 3 2 10 17 23
16 13 19 3 35 56 62 67 66 90 94 100 89 77 73 85 92 102 92 82 75 72 80 80 72 62 58 60 55 52 50 46 38 29 25 20 13 6 7 2 7 13 26
26 11 7 7 6 12 32 35 54 65 70 80 56 52 59 61 79 100 76 81 77 82 84 88 80 70 64 67 64 56 56 51 40 31 25 21 16 9 4 5 12 21 28
38 24 17 5 2 6 19 29 39 41 42 45 42 39 34 65 85 97 85 82 78 83 83 85 78 73 66 65 64 61 56 48 38 34 29 24 15 15 12 10 17 27 32
42 33 27 18 12 8 23 35 54 58 53 48 38 36 40 40 74 93 90 76 83 77 82 78 75 69 63 64 65 60 52 46 41 38 35 34 26 16 15 15 16 28 28
44 37 30 26 26 18 26 38 43 44 41 43 41 32 28 40 70 81 81 83 86 85 75 66 66 66 65 62 66 58 52 45 40 36 33 30 28 24 16 19 18 26 29
38 38 27 20 23 26 24 32 41 52 48 44 47 54 54 57 63 77 79 83 83 80 71 64 65 60 54 58 64 58 50 44 44 39 35 30 27 27 27 23 23 26 23
30 28 22 19 21 24 25 33 39 42 47 55 45 59 66 74 76 81 82 82 78 76 73 68 64 59 54 60 59 55 50 47 47 45 40 32 26 23 21 21 25 27 26
27 21 23 23 21 21 25 31 38 45 50 50 58 64 72 73 71 69 68 66 68 72 73 62 57 54 58 61 64 59 52 50 48 46 43 38 34 30 28 27 29 32 35
1 10 15 19 15 14 17 20 25 33 40 43 51 64 65 56 52 43 46 54 59 59 67 64 55 52 52 53 59 59 58 57 53 45 44 43 41 40 43 41 38 38 37
5 5 10 8 3 6 9 14 19 20 22 30 41 59 46 39 37 42 47 44 41 41 45 51 52 52 51 50 55 57 61 64 59 51 46 46 49 43 43 42 40 40 34
12 11 13 12 5 4 9 11 18 23 25 33 46 41 35 37 40 43 38 31 30 33 35 39 42 44 48 50 50 53 58 62 65 60 52 49 43 41 41 40 36 37 37
22 22 19 16 12 9 10 15 17 14 18 30 31 28 33 32 28 29 31 28 29 33 37 39 41 42 44 47 51 53 56 59 66 68 60 55 51 48 48 43 39 41 42
Wind_Direction_850mb
238 237 236 234 230 235 232 239 234 233 232 220 214 215 212 217 219 219 217 216 213 212 209 215 217 217 222 203 211 208 210 214 205 180 177 256 325 355 3 354 352 350 357
243 239 237 236 230 232 231 234 229 233 232 229 222 218 215 217 218 218 217 216 216 213 212 209 213 214 192 189 197 201 185 172 181 174 187 237 44 26 1 347 346 10 9
242 241 240 238 233 232 233 235 232 231 229 229 226 219 216 216 217 217 220 220 218 216 209 203 208 213 198 200 182 190 197 180 169 172 164 155 111 19 349 351 35 55 28
247 244 243 241 236 234 235 236 235 229 228 228 227 222 218 217 219 219 217 216 215 208 201 202 206 197 203 199 183 189 185 175 161 153 147 140 96 19 9 56 49 31 17
253 253 246 243 239 235 235 237 233 227 227 226 228 222 219 218 219 217 218 216 212 203 196 197 193 177 187 191 194 190 178 177 170 162 159 139 117 68 73 52 30 19 13
260 256 255 249 240 237 234 234 230 228 226 223 225 223 219 219 220 219 220 215 210 201 195 196 190 170 191 189 187 188 186 186 173 160 153 150 133 111 66 32 24 13 13
268 259 253 252 248 241 236 234 227 226 223 226 226 220 221 223 222 220 221 218 209 199 196 193 177 170 191 189 185 187 182 177 157 156 157 155 142 127 54 27 24 14 10
279 269 259 255 250 245 242 233 225 223 219 225 236 224 222 223 225 223 223 217 203 197 196 191 177 182 192 187 186 184 178 166 159 161 158 156 158 136 48 28 20 19 15
292 282 273 262 250 248 246 240 230 221 202 209 222 222 219 221 220 224 224 208 199 195 187 179 176 183 190 187 185 184 170 163 163 167 163 159 171 145 77 26 10 7 4
314 293 275 265 261 256 248 240 234 226 203 215 212 215 218 220 220 221 216 202 189 184 180 179 174 186 191 188 186 182 169 164 166 170 166 175 187 195 332 9 358 7 358
288 287 281 283 267 259 248 242 238 230 223 212 209 210 214 217 219 222 223 204 188 185 192 179 176 187 186 186 182 176 169 165 168 173 175 177 194 188 155 355 353 356 355
299 285 281 276 267 248 235 223 218 221 241 225 206 202 209 212 220 217 211 190 189 191 192 179 175 183 182 183 174 171 170 174 184 178 172 169 168 180 94 359 348 347 347
309 306 294 270 250 238 226 216 217 208 226 240 214 198 200 204 208 208 183 185 192 183 189 178 172 177 176 176 176 176 177 179 179 177 177 181 176 164 27 359 346 347 355
339 317 312 259 238 231 213 208 210 222 223 235 214 202 198 200 199 183 184 190 182 179 174 173 173 169 172 175 179 182 182 180 178 181 173 175 175 187 64 26 348 342 3
349 20 8 347 218 221 216 207 227 209 195 228 216 210 205 201 202 186 189 187 189 172 174 177 177 174 172 176 182 182 181 182 179 177 184 196 195 155 115 336 344 348 347
320 322 65 35 115 183 213 213 230 211 208 213 223 230 221 230 211 188 190 190 185 174 179 186 182 181 179 180 183 184 183 183 184 186 194 201 199 197 199 273 309 320 331
300 301 296 246 194 214 203 216 218 207 206 212 223 234 238 233 201 187 196 191 183 176 189 192 189 187 186 185 186 185 186 187 192 205 216 223 214 227 239 255 296 312 327
292 292 282 274 242 245 232 225 215 198 197 199 216 229 230 240 204 194 195 185 179 187 194 195 194 194 193 191 191 192 192 200 208 222 234 235 235 248 249 257 289 313 323
283 284 287 287 272 248 241 231 222 216 205 205 197 181 203 217 198 202 190 188 187 190 194 198 197 194 193 195 196 197 200 209 220 223 228 228 236 242 259 255 279 305 309
274 282 280 284 278 270 249 231 214 212 203 196 188 180 182 188 184 188 191 191 196 193 192 192 188 191 197 196 195 199 208 216 216 218 222 230 237 253 258 256 266 296 306
279 275 273 280 275 274 260 233 217 204 205 201 193 189 185 185 184 184 187 196 201 198 195 196 196 196 197 197 200 206 212 217 222 223 227 228 235 248 249 244 269 286 295
279 268 250 253 276 263 247 226 212 207 199 197 194 187 184 186 186 187 194 200 202 204 200 200 203 208 212 212 210 213 221 225 225 229 231 231 238 244 245 252 268 278 285
347 334 252 260 261 256 246 227 211 210 198 197 197 180 179 182 186 194 198 201 203 202 202 207 215 219 214 216 215 219 225 229 231 234 234 239 251 255 255 257 267 276 279
110 312 321 316 256 238 209 207 188 181 181 178 176 175 176 181 188 187 191 195 193 200 211 216 219 215 215 220 220 226 233 232 231 232 236 245 257 255 257 259 266 269 271
71 53 88 90 111 154 149 154 156 157 161 164 171 177 186 189 182 175 187 194 207 214 210 211 215 219 226 227 231 236 240 234 232 234 239 244 242 247 251 252 255 259 267
70 77 75 66 78 126 130 146 137 159 177 176 170 172 169 157 165 187 201 214 225 223 220 224 224 226 229 234 237 238 239 235 234 232 235 239 243 251 255 255 254 258 266